SCP
0 0 1 1 1 1 1 1 1 1 1 1 1 1 0 0 0 0 0 0 0 0 0 0 0 0 0 0 0 0 0 0 0 0 0 0 0 0 0 0 0 0 0
0 1 1 1 1 1 1 1 1 1 1 1 1 0 0 0 0 0 0 0 0 0 0 0 0 0 0 0 0 0 0 0 0 0 0 0 0 0 0 0 0 0 0
1 1 1 1 1 1 1 1 1 1 1 1 1 0 0 0 0 0 0 0 0 0 0 0 0 0 0 0 0 0 0 0 0 0 0 0 0 0 0 0 0 0 0
1 1 1 1 1 1 1 2 1 1 1 1 1 0 0 0 0 0 0 0 0 0 0 0 0 0 0 0 0 0 0 0 0 0 0 0 0 0 0 0 0 0 0
1 1 1 1 1 1 2 2 1 1 1 1 1 0 0 0 0 0 0 0 0 0 0 0 0 0 0 0 0 0 0 0 0 0 0 0 0 0 0 0 0 0 0
1 1 1 1 1 1 1 1 1 1 1 1 1 0 0 0 0 0 0 0 0 0 0 0 0 0 0 0 0 0 0 0 0 0 0 0 0 0 0 0 0 0 0
1 1 1 1 1 1 1 1 1 1 1 1 1 1 0 0 0 0 0 0 0 0 0 0 0 0 0 0 0 0 0 0 0 0 0 0 0 0 0 0 0 0 0
1 1 1 1 1 1 1 0 1 1 1 1 1 1 1 0 0 0 0 0 0 0 0 0 0 0 0 0 0 0 0 0 0 0 0 0 0 0 0 0 0 0 0
1 1 1 1 1 1 0 0 1 1 1 1 1 1 1 0 0 0 0 0 0 0 0 0 0 0 0 0 0 0 0 0 0 0 0 0 0 0 0 0 0 0 0
1 1 1 1 1 0 0 0 1 1 1 1 1 1 0 0 0 0 0 0 0 0 0 0 0 0 0 0 0 0 0 0 0 0 0 0 0 0 0 0 0 0 0
1 1 1 1 0 0 0 0 0 1 1 1 1 0 0 0 0 0 0 0 0 0 0 0 0 0 0 0 0 0 0 0 0 0 0 0 0 0 0 0 0 0 0
1 1 1 1 1 0 0 0 0 0 0 0 0 0 0 0 0 0 0 0 0 0 0 0 0 0 0 0 0 0 0 0 0 0 0 0 0 0 0 0 0 0 0
1 1 1 1 1 0 0 0 0 0 0 0 0 0 0 0 0 0 0 0 0 0 0 0 0 0 0 0 0 0 0 0 0 0 0 0 0 0 0 0 0 0 0
1 1 1 1 1 1 1 1 1 1 0 0 0 0 0 0 0 0 0 0 0 0 0 0 0 0 0 0 0 0 0 0 0 0 0 0 0 0 0 0 0 0 0
2 2 2 1 1 1 1 1 1 1 1 0 0 0 0 0 0 0 0 0 0 0 0 0 0 0 0 0 0 0 0 0 0 0 0 0 0 0 0 0 0 0 0
2 2 2 2 2 2 1 1 1 1 1 1 0 0 0 0 0 0 0 0 0 0 0 0 0 0 0 0 0 0 0 0 0 0 0 0 0 0 0 0 0 0 0
1 2 3 3 3 2 2 2 2 1 1 1 1 1 0 0 0 0 0 0 0 0 0 0 0 0 0 0 0 0 0 0 0 0 0 0 0 0 0 0 0 0 0
1 2 3 4 4 3 3 3 2 2 2 2 1 1 0 0 0 0 0 0 0 0 0 0 0 0 0 0 0 0 0 0 0 0 0 0 0 0 0 0 0 0 0
1 1 3 4 4 4 4 4 3 3 3 2 2 2 1 0 0 0 0 0 0 0 0 0 0 0 0 0 0 0 0 0 0 0 0 0 0 0 0 0 0 0 0
0 1 2 4 4 4 4 5 5 4 4 3 3 2 2 1 0 0 0 0 0 0 0 0 0 0 0 0 0 0 0 0 0 0 0 0 0 0 0 0 0 0 0
0 0 2 3 4 4 5 6 6 6 5 4 4 3 2 2 1 0 0 0 0 0 0 0 0 0 0 0 0 0 0 0 0 0 0 0 0 0 0 0 0 0 0
0 0 1 2 4 4 5 6 7 7 6 5 4 4 3 2 1 0 0 0 0 0 0 0 0 0 0 0 0 0 0 0 0 0 0 0 0 0 0 0 0 0 0
0 0 1 2 3 4 5 6 7 6 6 5 5 4 3 2 1 0 0 0 0 0 0 0 0 0 0 0 0 0 0 0 0 0 0 0 0 0 0 0 0 0 0
0 0 0 1 2 4 5 6 6 6 6 5 5 4 3 2 1 0 0 0 0 0 0 0 0 0 0 0 0 0 0 0 0 0 0 0 0 0 0 0 0 0 0
0 0 0 0 1 3 5 6 6 6 5 5 4 3 2 1 0 0 0 0 0 0 0 0 0 0 0 0 0 0 0 0 0 0 0 0 0 0 0 0 0 0 0
0 0 0 0 1 2 4 5 5 5 5 4 3 2 1 0 0 0 0 0 0 0 0 0 0 0 0 0 0 0 0 0 0 0 0 0 0 0 0 0 0 0 0
Wind_Speed
8 10 18 18 18 18 18 18 18 18 18 17 17 16 15 13 12 11 10 9 7 7 7 9 11 13 14 13 12 11 10 10 10 9 8 7 7 7 8 8 7 3 6
11 12 18 18 19 18 18 18 17 17 17 17 16 15 14 13 12 10 9 8 7 7 8 10 13 14 13 12 11 10 9 8 7 6 4 3 3 5 7 6 5 3 5
15 12 15 17 18 18 18 18 17 17 17 17 16 15 14 13 11 10 9 9 8 8 10 12 14 14 13 12 10 9 8 7 6 5 3 2 1 4 6 5 4 4 3
16 12 13 17 19 19 18 18 17 17 17 17 16 15 14 12 11 10 10 9 9 10 12 13 14 13 12 11 9 7 6 5 6 6 3 2 1 4 5 4 3 3 2
13 11 13 18 19 19 18 17 17 16 16 16 16 15 14 12 11 11 11 10 10 11 12 13 12 11 10 9 7 6 5 5 7 5 3 3 1 4 5 4 3 2 1
11 9 13 17 19 18 17 17 17 17 16 16 16 15 14 13 12 12 11 11 11 11 11 11 11 10 8 7 6 5 4 6 6 3 3 3 1 4 6 5 5 4 3
11 10 12 16 18 18 17 17 17 17 17 16 16 15 15 13 13 13 12 11 10 10 10 10 9 8 7 6 5 3 4 6 4 3 3 1 1 6 7 8 8 8 7
14 11 11 15 15 16 17 17 17 17 17 16 16 15 15 14 14 13 12 11 10 10 9 9 8 7 6 5 3 3 4 5 5 4 2 1 4 7 8 8 9 10 10
14 12 9 9 11 13 14 14 15 15 15 16 15 14 13 13 14 13 12 11 10 9 8 8 8 7 6 4 2 2 4 5 3 2 2 1 5 8 8 9 10 12 13
11 11 10 9 8 7 9 12 13 13 13 13 13 12 12 12 12 13 10 10 9 8 8 7 7 6 4 2 2 4 5 5 4 3 1 2 7 9 10 10 11 11 12
11 10 10 9 8 7 7 10 10 11 11 11 10 12 11 7 7 8 8 9 9 8 8 7 6 5 2 2 4 6 5 3 4 3 1 5 9 10 11 11 11 11 11
14 13 10 11 10 9 8 6 5 5 6 6 5 7 5 5 5 7 9 10 9 8 7 6 5 3 1 2 3 5 3 4 3 2 2 7 10 10 11 11 11 11 10
15 14 13 12 11 10 7 6 4 3 4 5 6 6 5 4 4 4 3 4 5 5 3 2 2 1 2 2 2 3 4 3 2 2 3 9 10 10 11 10 10 10 9
14 15 15 14 13 12 9 7 6 5 5 5 6 7 5 4 4 4 3 4 3 2 2 2 2 2 3 3 4 4 4 3 3 2 3 9 10 10 10 9 9 9 9
14 15 15 15 15 13 11 8 9 7 7 7 6 7 7 5 6 5 4 4 4 3 3 3 3 3 4 4 3 4 4 4 4 3 3 9 10 10 9 8 8 8 8
11 14 14 16 16 14 12 10 9 9 8 8 7 8 9 7 7 6 5 5 4 4 3 4 4 4 3 3 4 4 4 4 4 4 3 5 10 9 8 8 7 8 8
10 11 14 16 16 16 15 13 10 10 9 9 8 9 10 9 8 7 6 5 5 4 5 4 4 3 3 3 3 3 3 3 4 4 4 3 4 7 8 7 7 7 8
9 10 13 14 16 16 15 13 10 10 10 9 8 9 11 11 10 8 6 5 5 5 5 5 4 3 3 3 2 1 2 2 3 4 3 3 2 2 4 5 5 6 7
9 10 12 13 15 17 16 13 11 10 11 9 8 8 10 11 11 8 7 6 7 5 4 5 3 3 2 2 1 1 1 2 3 4 4 4 3 3 2 3 4 4 5
9 9 11 12 14 15 12 9 8 8 9 8 9 9 11 9 10 9 7 8 7 6 4 4 4 3 2 2 1 2 1 1 2 3 4 3 3 3 3 2 2 1 4
7 8 9 11 12 11 9 10 10 10 9 8 8 10 11 11 11 10 8 8 7 7 7 7 4 4 2 1 2 2 2 2 1 1 2 2 2 2 2 2 1 0 2
8 8 8 10 11 12 12 12 11 10 8 8 7 9 11 12 12 11 12 9 8 7 7 6 5 4 2 2 3 2 1 2 1 1 0 1 1 1 1 1 0 1 2
8 8 8 10 11 11 11 6 4 3 3 2 5 7 9 11 12 11 12 10 9 8 8 7 6 6 4 2 1 3 3 3 1 2 2 1 1 1 1 1 2 2 3
8 7 7 8 9 10 10 10 12 11 9 9 8 6 7 9 10 11 12 11 10 7 8 7 5 4 5 3 2 2 2 3 2 1 2 2 1 1 1 2 3 4 4
5 4 5 6 7 8 10 13 14 10 7 5 5 7 7 6 8 10 11 10 10 8 8 7 6 5 4 4 3 2 2 2 2 2 2 3 3 2 2 3 3 3 4
3 3 3 4 6 7 9 12 14 13 11 10 9 9 7 5 5 7 9 9 9 8 8 8 7 7 5 5 3 3 3 2 2 2 2 2 3 3 3 3 2 2 2
Wind_Direction
157 162 154 148 142 138 136 134 134 132 130 127 124 121 119 118 116 115 113 113 120 127 135 138 137 128 119 111 103 96 91 88 84 78 72 65 65 75 78 74 75 68 81
147 156 152 149 144 141 138 136 135 135 134 132 129 127 126 124 121 119 116 113 113 122 128 134 136 130 121 114 106 99 94 89 84 78 82 73 49 74 83 81 80 88 82
146 152 151 149 145 143 140 139 139 140 139 136 134 132 130 127 124 123 119 114 109 113 117 118 121 122 119 114 107 101 96 84 69 57 89 141 103 90 88 85 81 84 79
147 150 152 150 147 145 144 144 144 143 143 140 138 135 132 129 127 127 124 118 109 108 111 113 114 113 114 111 108 104 93 68 45 49 80 150 197 91 92 86 76 66 55
145 148 154 152 149 148 147 148 148 148 147 145 141 137 133 130 129 129 125 121 115 111 111 113 112 112 113 112 110 104 83 46 34 53 107 139 193 85 85 79 65 53 27
140 143 155 154 152 151 150 151 152 152 152 150 146 142 137 133 131 129 126 125 122 119 118 116 116 117 119 118 114 100 62 36 41 68 120 144 173 84 77 68 58 51 41
141 146 156 156 155 154 153 154 154 155 155 153 150 148 143 138 135 134 134 133 131 129 127 125 125 126 124 120 111 83 42 32 55 85 123 141 113 84 72 64 58 55 53
148 151 158 159 157 157 157 157 158 158 158 157 156 155 150 145 142 142 143 142 140 137 135 134 134 132 130 125 108 62 35 44 63 92 107 101 93 83 73 66 62 60 59
150 153 158 160 161 161 161 161 162 161 160 161 162 161 154 150 151 152 153 152 149 144 142 142 141 140 139 133 106 41 29 59 97 117 106 87 89 84 80 75 68 65 61
154 160 160 160 161 162 163 166 165 163 163 164 161 156 154 156 160 161 161 162 159 155 154 152 150 149 146 133 72 43 52 69 88 92 84 99 93 90 85 77 71 67 63
165 168 166 164 164 163 166 173 168 167 169 166 159 157 155 159 161 165 170 169 168 168 168 166 162 157 142 63 51 61 64 78 91 84 72 99 95 92 87 80 74 69 65
177 178 175 173 171 168 175 170 169 171 171 165 161 161 157 159 167 169 177 176 177 177 179 178 168 158 128 44 49 66 71 91 90 83 90 101 98 95 90 82 75 69 62
180 181 182 181 178 176 176 169 173 171 169 170 171 170 162 161 166 168 168 176 178 179 178 165 119 94 97 89 83 84 90 88 81 64 85 101 101 99 93 84 75 67 58
182 188 185 185 183 183 180 178 178 178 179 182 185 179 166 167 173 170 174 175 174 170 167 150 125 110 100 99 101 99 97 97 95 75 86 100 103 101 94 84 74 62 51
188 192 189 187 187 185 182 183 184 187 188 190 189 188 179 176 180 178 181 178 181 171 161 149 132 119 105 93 89 98 101 108 110 88 82 101 102 101 95 82 68 54 41
197 196 192 192 191 187 187 187 187 190 190 191 196 191 185 183 181 180 180 177 177 168 155 145 138 122 104 93 83 89 100 110 115 111 91 100 108 106 98 84 65 49 34
207 201 195 196 193 191 192 191 190 190 190 192 197 195 188 184 180 178 175 174 171 154 139 124 116 101 93 82 77 83 99 115 131 131 116 98 103 109 107 91 68 48 31
208 205 201 198 195 195 194 193 192 191 191 193 192 193 191 185 178 172 170 168 156 144 138 132 124 101 88 86 82 69 90 118 136 145 136 132 126 118 116 110 80 51 31
215 207 205 201 196 198 197 194 193 190 192 191 189 190 189 183 175 169 165 158 150 141 139 138 120 119 115 109 115 99 97 134 146 153 158 165 166 154 146 125 97 65 30
229 213 208 206 200 198 197 191 190 192 192 190 190 188 182 179 172 163 158 156 151 143 139 132 123 100 107 122 91 71 49 116 138 158 171 174 182 176 161 132 103 37 11
242 226 214 209 206 196 191 189 189 195 194 191 191 187 182 175 169 163 159 158 157 154 153 142 124 114 97 98 94 51 16 32 96 149 165 168 179 169 151 149 164 244 316
242 235 224 215 209 202 198 196 194 189 189 189 184 184 182 174 171 168 163 166 161 147 146 148 136 125 108 89 127 121 40 345 343 27 54 168 153 100 102 94 303 288 289
246 238 231 222 215 209 202 187 152 115 95 141 184 187 183 176 172 168 167 163 162 158 162 159 147 139 139 102 96 148 155 214 276 332 11 45 86 95 58 15 351 326 309
247 244 239 232 222 212 195 181 175 178 181 187 184 178 170 172 171 166 165 161 159 155 154 156 144 140 135 139 109 71 111 141 154 290 328 1 18 84 22 348 340 330 326
257 256 249 241 231 215 197 189 190 191 181 158 148 153 158 160 164 164 161 156 154 149 145 139 134 130 125 137 143 133 106 80 107 150 269 316 331 315 315 315 318 330 337
287 281 266 249 242 221 204 196 194 184 161 154 159 163 160 150 150 157 153 150 146 143 140 136 130 125 119 120 123 130 139 145 155 155 213 269 290 292 296 293 304 330 346